Please be sure to check the latest weather conditions by clicking the link and viewing our local weather information!

Check Weather

Welcome to Lakeway Airpark (3R9)

FromTheAir

We’re a community airpark nestled within the town of Lakeway, Texas (17 miles northwest of downtown Austin).

Lakeway Airpark, Inc. was formed by Lakeway residents and interested parties to own and manage Lakeway Airpark (3R9).

The Airpark is a privately owned not for profit public use airport for residents and guests of Lakeway. No public funds are used and the airport is supported by fees and fuel sales at the airport.

Lakeway Airpark is an unmanned facility open for use from Sunrise to Sunset seven days a week. Takeoffs and landings are not permitted at night, between Sunset and Sunrise, by City Ordinance.

Quick Weather Info

Available data for KAUS from the past 2 hours
AUSTIN, TX
Metar
KAUS 230953Z 33013G25KT 10SM FEW080 OVC100 05/M04 A3012 RMK AO2 RAB20E22PLE08B22E40 SLP199 P0000 T00501044

09:53 UTC

Wind: 330° 13kt

Visibility: 10 SM

Sky: FEW 8000 ft

Temp: 5 deg C / 41 deg F

Dewpoint: -4 deg C / 24.8 deg F

Pressure: 30.12 inHg

TAF
KAUS 230946Z 2310/2412 34015G25KT P6SM VCSH FEW080 OVC100 FM231200 35017G27KT P6SM OVC100 FM231400 35016G26KT P6SM FEW150 FM232200 33010KT P6SM SKC FM240100 VRB03KT P6SM SKC